Covington, KY

9:17 AM EDT on March 28, 2017 (GMT -0400)
Cincinnati-Northern KY International

Weather History for KCVG - March, 2012

Change the Weather History Date:

Wednesday, March 28, 2012

  Actual Average Record
Temperature  
Mean Temperature 64 °F 48 °F  
Max Temperature 77 °F 58 °F 85 °F (1910)
Min Temperature 50 °F 38 °F 18 °F (1934)
Degree Days  
Heating Degree Days 1 17  
Month to date heating degree days 295 616  
Since 1 July heating degree days 3620 4443  
Cooling Degree Days 0 0  
Month to date cooling degree days 33 0  
Year to date cooling degree days 33 0  
Growing Degree Days 13 (Base 50)    
Moisture  
Dew Point 46 °F    
Average Humidity 47    
Maximum Humidity 66    
Minimum Humidity 27    
Precipitation  
Precipitation 0.00 in 0.14 in 1.87 in (2005)
Month to date precipitation 2.53 3.54  
Year to date precipitation 9.46 9.35  
Snow  
Snow 0.00 in 0.10 in 1.20 in (1899)
Month to date snowfall 1.5 2.9  
Since 1 July snowfall 5.6 21.5  
Snow Depth 0.00 in    
Sea Level Pressure  
Sea Level Pressure 29.92 in    
Wind  
Wind Speed 12 mph (WSW)    
Max Wind Speed 24 mph    
Max Gust Speed 32 mph    
Visibility 10 miles    
Events      
T = Trace of Precipitation, MM = Missing Value Source: NWS Daily Summary

Daily Weather History Graph

Daily Weather History Graph

Search for Another Location

Airport or City:

Trip Planner

Search our weather history database for the weather conditions in past years. The results will help you decide how hot, cold, wet, or windy it might be!

Date:

Astronomy

Mar. 28, 2012 Rise Set
Actual Time 7:28 AM EDT 7:58 PM EDT
Civil Twilight 7:01 AM EDT 8:25 PM EDT
Nautical Twilight 6:30 AM EDT 8:57 PM EDT
Astronomical Twilight 5:58 AM EDT 9:29 PM EDT
Moon 10:47 AM EDT 12:57 AM EDT
Length of Visible Light 13h 23m
Length of Day
12h 30m
Waxing Crescent, 30% of the Moon is Illuminated
Mar 28
Waxing Crescent
Mar 30
First Quarter
Apr 6
Full
Apr 13
Last Quarter
Apr 21
New

Hourly Weather History & Observations

Time (EDT) Temp. Dew Point Humidity Pressure Visibility Wind Dir Wind Speed Gust Speed Precip Events Conditions
12:52 AM 55.9 °F 37.0 °F 49% 29.99 in 10.0 mi SSW 6.9 mph - N/A   Mostly Cloudy
1:52 AM 53.1 °F 39.0 °F 59% 29.97 in 10.0 mi South 5.8 mph - N/A   Partly Cloudy
2:52 AM 55.0 °F 37.9 °F 53% 29.96 in 10.0 mi SSW 4.6 mph - N/A   Clear
3:52 AM 51.1 °F 39.9 °F 66% 29.96 in 10.0 mi South 6.9 mph - N/A   Clear
4:52 AM 55.9 °F 45.0 °F 67% 29.94 in 10.0 mi SSW 8.1 mph - N/A   Partly Cloudy
5:52 AM 59.0 °F 46.9 °F 64% 29.92 in 10.0 mi SSW 9.2 mph - N/A   Partly Cloudy
6:52 AM 61.0 °F 48.9 °F 64% 29.92 in 10.0 mi SSW 11.5 mph 18.4 mph N/A   Partly Cloudy
7:52 AM 62.1 °F 50.0 °F 65% 29.92 in 10.0 mi SW 11.5 mph 18.4 mph N/A   Partly Cloudy
8:52 AM 64.9 °F 52.0 °F 63% 29.93 in 10.0 mi SW 12.7 mph - N/A   Mostly Cloudy
9:52 AM 68.0 °F 53.1 °F 59% 29.91 in 10.0 mi WSW 11.5 mph 23.0 mph N/A   Mostly Cloudy
10:52 AM 68.0 °F 54.0 °F 61% 29.92 in 10.0 mi WSW 12.7 mph 21.9 mph N/A   Mostly Cloudy
11:52 AM 72.0 °F 55.9 °F 57% 29.92 in 10.0 mi West 16.1 mph 26.5 mph N/A   Mostly Cloudy
12:52 PM 73.0 °F 57.0 °F 57% 29.91 in 10.0 mi West 12.7 mph 19.6 mph N/A   Mostly Cloudy
1:52 PM 73.9 °F 57.9 °F 57% 29.90 in 10.0 mi West 16.1 mph 23.0 mph N/A   Mostly Cloudy
2:52 PM 73.9 °F 54.0 °F 50% 29.90 in 10.0 mi West 19.6 mph - N/A   Scattered Clouds
3:52 PM 75.0 °F 51.1 °F 43% 29.88 in 10.0 mi West 18.4 mph 26.5 mph N/A   Scattered Clouds
4:52 PM 75.0 °F 50.0 °F 41% 29.86 in 10.0 mi West 18.4 mph 25.3 mph N/A   Scattered Clouds
5:52 PM 75.0 °F 41.0 °F 29% 29.86 in 10.0 mi WNW 18.4 mph - N/A   Partly Cloudy
6:52 PM 73.0 °F 37.0 °F 27% 29.87 in 10.0 mi WNW 15.0 mph 21.9 mph N/A   Partly Cloudy
7:52 PM 68.0 °F 37.0 °F 32% 29.89 in 10.0 mi WNW 10.4 mph - N/A   Partly Cloudy
8:52 PM 64.9 °F 37.9 °F 37% 29.89 in 10.0 mi WNW 9.2 mph - N/A   Partly Cloudy
9:52 PM 64.0 °F 39.0 °F 40% 29.92 in 10.0 mi WNW 9.2 mph - N/A   Partly Cloudy
10:52 PM 61.0 °F 39.0 °F 44% 29.94 in 10.0 mi NW 8.1 mph - N/A   Partly Cloudy
11:52 PM 60.1 °F 35.1 °F 39% 29.95 in 10.0 mi WNW 6.9 mph - N/A   Clear